Weather History for Wichita Falls, TX

Change the Weather History Date:

Tuesday, July 30, 2013

  Actual Average Record
Temperature  
Mean Temperature 87 °F 85 °F  
Max Temperature 98 °F 98 °F 110 °F (1986)
Min Temperature 76 °F 73 °F 58 °F (1965)
Cooling Degree Days 22 20  
Month to date cooling degree days 539 580  
Year to date cooling degree days 1426 1335  
Growing Degree Days 36 (Base 50)    
Moisture  
Dew Point 69 °F    
Average Humidity 58    
Maximum Humidity 74    
Minimum Humidity 42    
Precipitation  
Precipitation T in 0.06 in 1.30 in (1911)
Month to date precipitation 3.87 1.54  
Year to date precipitation 13.99 17.18  
Sea Level Pressure  
Sea Level Pressure 29.93 in    
Wind  
Wind Speed 9 mph (SSE)    
Max Wind Speed 22 mph    
Max Gust Speed 33 mph    
Visibility 10 miles    
Events Thunderstorm    
T = Trace of Precipitation, MM = Missing Value Source: NWS Daily Summary

Daily Weather History Graph

Daily Weather History Graph

Search for Another Location

Airport:

Trip Planner

Search our weather history database for the weather conditions in past years. The results will help you decide how hot, cold, wet, or windy it might be!

Date:

Astronomy

Jul. 30, 2013 Rise Set
Actual Time 6:44 AM CDT 8:36 PM CDT
Civil Twilight 6:16 AM CDT 9:03 PM CDT
Nautical Twilight 5:43 AM CDT 9:36 PM CDT
Astronomical Twilight 5:07 AM CDT 10:12 PM CDT
Moon 1:00 AM CDT (7/30) 2:58 PM CDT (7/30)
Length of Visible Light 14h 46m
Length of Day
13h 51m
Last Quarter, 41% of the Moon is Illuminated
Jul 30
Last Quarter
Aug 6
New
Aug 14
First Quarter
Aug 20
Full
Aug 28
Last Quarter

Hourly Weather History & Observations

Time (CDT) Temp. Heat Index Dew Point Humidity Pressure Visibility Wind Dir Wind Speed Gust Speed Precip Events Conditions
12:52 AM 82.9 °F 84.0 °F 63.0 °F 51% 29.87 in 10.0 mi South 12.7 mph - N/A   Clear
1:52 AM 81.0 °F 82.5 °F 64.0 °F 56% 29.88 in 10.0 mi SSE 6.9 mph - N/A   Clear
2:52 AM 80.1 °F 81.9 °F 64.9 °F 60% 29.90 in 10.0 mi South 3.5 mph - N/A   Clear
3:52 AM 77.0 °F - 68.0 °F 74% 29.94 in 10.0 mi NE 6.9 mph - N/A   Clear
4:52 AM 77.0 °F - 66.9 °F 71% 29.94 in 10.0 mi East 6.9 mph - N/A   Mostly Cloudy
5:52 AM 77.0 °F - 68.0 °F 74% 29.94 in 10.0 mi SE 6.9 mph - N/A   Mostly Cloudy
6:52 AM 78.1 °F - 68.0 °F 71% 29.97 in 10.0 mi ESE 6.9 mph - N/A   Mostly Cloudy
7:52 AM 79.0 °F - 68.0 °F 69% 29.96 in 10.0 mi SSE 13.8 mph - N/A   Mostly Cloudy
8:52 AM 82.0 °F 85.5 °F 69.1 °F 65% 29.96 in 10.0 mi South 18.4 mph - N/A   Mostly Cloudy
9:52 AM 86.0 °F 91.5 °F 71.1 °F 61% 29.95 in 10.0 mi South 19.6 mph - N/A   Mostly Cloudy
10:52 AM 88.0 °F 93.8 °F 71.1 °F 57% 29.96 in 10.0 mi SSW 18.4 mph 25.3 mph N/A   Mostly Cloudy
11:52 AM 90.0 °F 96.4 °F 71.1 °F 54% 29.96 in 10.0 mi SW 16.1 mph 24.2 mph N/A   Mostly Cloudy
12:52 PM 91.9 °F 98.4 °F 71.1 °F 50% 29.96 in 10.0 mi SSW 9.2 mph - N/A   Mostly Cloudy
1:52 PM 93.9 °F 102.1 °F 72.0 °F 49% 29.94 in 10.0 mi SSW 6.9 mph - N/A   Mostly Cloudy
2:52 PM 96.1 °F 104.9 °F 72.0 °F 46% 29.93 in 10.0 mi SSW 11.5 mph - N/A   Mostly Cloudy
3:52 PM 95.0 °F 101.3 °F 70.0 °F 44% 29.91 in 10.0 mi SW 4.6 mph - N/A   Mostly Cloudy
4:52 PM 96.1 °F 101.6 °F 69.1 °F 41% 29.91 in 10.0 mi SE 3.5 mph - N/A   Mostly Cloudy
5:52 PM 97.0 °F 102.8 °F 69.1 °F 40% 29.89 in 10.0 mi SSW 6.9 mph - N/A   Scattered Clouds
6:52 PM 93.9 °F 100.3 °F 70.0 °F 46% 29.88 in 10.0 mi SSW 10.4 mph - N/A   Mostly Cloudy
7:52 PM 93.0 °F 99.0 °F 70.0 °F 47% 29.89 in 10.0 mi SSE 10.4 mph - N/A   Mostly Cloudy
8:52 PM 89.1 °F 92.9 °F 68.0 °F 50% 29.91 in 10.0 mi SSE 6.9 mph - N/A   Mostly Cloudy
8:59 PM 87.8 °F 92.6 °F 69.8 °F 55% 29.95 in 10.0 mi SSE 6.9 mph - N/A Thunderstorm Mostly Cloudy
9:15 PM 87.8 °F 92.6 °F 69.8 °F 55% 29.96 in 10.0 mi SSE 4.6 mph - N/A   Mostly Cloudy
9:26 PM 89.6 °F 94.7 °F 69.8 °F 52% 29.98 in 10.0 mi Calm Calm - N/A Thunderstorm Mostly Cloudy
9:52 PM 87.1 °F 93.6 °F 72.0 °F 61% 29.94 in 10.0 mi NNE 8.1 mph - 0.00 in Thunderstorm Scattered Clouds
10:18 PM 82.4 °F 88.2 °F 73.4 °F 74% 30.00 in 10.0 mi NNE 9.2 mph - N/A   Mostly Cloudy
10:52 PM 82.0 °F 86.3 °F 71.1 °F 69% 29.95 in 10.0 mi NE 9.2 mph - N/A   Clear
11:52 PM 80.1 °F 83.2 °F 70.0 °F 71% 29.95 in 10.0 mi ENE 3.5 mph - N/A   Clear